User: anonymous   Login
Location: Cluny
(50.9333°N, 112.8167°W)
Time: 11:29:50
(UTC-06:00)
Language:

Hamsat - Orbit

View from above orbital plane
View from above orbital plane
View from above satellite
View from above satellite

Ground track
Ground track

The orbit data is extracted from the following two-line orbital elements,

1 28650U 05017B   18116.15127692  .00000235  00000-0  30752-4 0  9995
2 28650  97.6944  85.6977 0023599 171.2152 188.9483 14.88910307702732
Epoch (UTC): 26 April 2018 03:37:50
Eccentricity: 0.0023599
inclination: 97.6944°
perigee height: 585 km
apogee height: 618 km
right ascension of ascending node: 85.6977°
argument of perigee: 171.2152°
revolutions per day: 14.88910307
mean anomaly at epoch: 188.9483°
orbit number at epoch: 70273

The dashed part of the orbit path shows where the satellite is in the earth's shadow,  

DLR